Location: Poughquag
(41.6090°N, 73.6820°W)
Time: 14:31:25
(UTC-04:00)

CUBEBUG 2 - Pass Details

Date: 03 June 2024
Orbit: 571 x 666 km, 97.8° (Epoch: 14 June)

Event Time Altitude Azimuth Distance (km) Brightness Sun altitude
Rises 03:15:04 0° 9° (N) 3,004 ? -18.0°
Reaches altitude 10° 03:17:18 10° 8° (N) 2,094 ? -17.8°
Maximum altitude 03:21:52 69° 286° (WNW) 714 ? -17.3°
Enters shadow 03:23:55 32° 210° (SSW) 1,141 ? -17.1°
